Heute – Wetterdaten der letzten 3 Stunden im 5 Min. Intervall

Wetterdaten der letzten 3 Stunden im 5 Min. Intervall
DatumAussentemperaturLuftdruckLuftfeuchtigkeitWindstärke Regen
25.01.21, 18:20 0.7 °C 1009.3 hPa 92 % 0.0 km/h 2.8 mm
25.01.21, 18:15 0.8 °C 1009.4 hPa 92 % 0.0 km/h 2.8 mm
25.01.21, 18:10 0.8 °C 1009.3 hPa 92 % 0.0 km/h 2.8 mm
25.01.21, 18:05 0.8 °C 1009.2 hPa 92 % 0.0 km/h 2.8 mm
25.01.21, 17:55 1.0 °C 1009.0 hPa 91 % 0.0 km/h 2.8 mm
25.01.21, 17:50 1.1 °C 1009.1 hPa 91 % 0.0 km/h 2.8 mm
25.01.21, 17:45 1.2 °C 1008.9 hPa 90 % 0.0 km/h 2.8 mm
25.01.21, 17:40 1.3 °C 1008.9 hPa 90 % 0.0 km/h 2.8 mm
25.01.21, 17:35 1.3 °C 1008.9 hPa 90 % 0.0 km/h 2.8 mm
25.01.21, 17:30 1.4 °C 1008.9 hPa 89 % 0.0 km/h 2.8 mm
25.01.21, 17:25 1.6 °C 1008.9 hPa 88 % 0.0 km/h 2.8 mm
25.01.21, 17:20 1.8 °C 1008.8 hPa 88 % 0.0 km/h 2.8 mm
25.01.21, 17:15 1.9 °C 1008.7 hPa 87 % 0.0 km/h 2.8 mm
25.01.21, 17:10 2.2 °C 1008.7 hPa 85 % 0.0 km/h 2.8 mm
25.01.21, 17:05 2.4 °C 1008.6 hPa 84 % 0.0 km/h 2.8 mm
25.01.21, 17:00 2.7 °C 1008.4 hPa 83 % 1.8 km/h 2.8 mm
25.01.21, 16:55 3.2 °C 1008.4 hPa 81 % 0.0 km/h 2.6 mm
25.01.21, 16:50 3.6 °C 1008.4 hPa 80 % 0.0 km/h 2.6 mm
25.01.21, 16:45 3.7 °C 1008.2 hPa 80 % 0.0 km/h 2.6 mm
25.01.21, 16:40 3.7 °C 1008.1 hPa 81 % 0.0 km/h 2.6 mm
25.01.21, 16:35 3.6 °C 1008.2 hPa 80 % 0.0 km/h 2.6 mm
25.01.21, 16:30 3.5 °C 1008.0 hPa 81 % 0.0 km/h 2.6 mm
25.01.21, 16:25 3.5 °C 1008.0 hPa 81 % 0.0 km/h 2.6 mm
25.01.21, 16:20 3.4 °C 1008.0 hPa 81 % 0.0 km/h 2.6 mm
25.01.21, 16:15 3.5 °C 1007.9 hPa 80 % 1.8 km/h 2.6 mm
25.01.21, 16:10 3.5 °C 1007.8 hPa 80 % 3.2 km/h 2.6 mm
25.01.21, 16:05 3.6 °C 1007.7 hPa 80 % 0.0 km/h 2.6 mm
25.01.21, 15:55 3.5 °C 1007.5 hPa 79 % 1.8 km/h 2.4 mm
25.01.21, 15:50 3.6 °C 1007.3 hPa 79 % 0.0 km/h 2.4 mm
25.01.21, 15:45 3.7 °C 1007.3 hPa 80 % 0.0 km/h 2.4 mm
25.01.21, 15:40 3.7 °C 1007.3 hPa 79 % 3.2 km/h 2.4 mm
25.01.21, 15:35 3.8 °C 1007.1 hPa 78 % 0.0 km/h 2.4 mm
25.01.21, 15:30 3.9 °C 1007.1 hPa 78 % 0.0 km/h 2.4 mm
25.01.21, 15:25 3.9 °C 1007.0 hPa 79 % 0.0 km/h 2.4 mm